Location: Lafig�re
(44.4503°N, 4.0357°E)
Time: 16:08:34
(UTC+00:00)

Vanguard 2 Rocket - Pass Details

Date: 21 June 2021
Orbit: 555 x 3325 km, 32.9° (Epoch: 28 July)

Event Time Altitude Azimuth Distance (km) Brightness Sun altitude
Rises 22:17:11 0° 270° (W) 7,171 11.7 -19.1°
Reaches altitude 10° 22:22:39 10° 265° (W) 5,926 11.2 -19.5°
Maximum altitude 22:38:16 44° 202° (SSW) 2,862 9.0 -20.4°
Enters shadow 22:44:01 28° 151° (SSE) 3,017 8.9 -20.7°
